GW6473 Weather Reports


Display with metric or nautical units.
time (UTC)temp
F
wind
direction
speed
MPH
gust
MPH
rain 1hr
in
rain 24hr
in
rain mn
in
humidity
%
barometer
mb
20260508033042 55 240 1.0 2.0 0.00 0.00 0.00 18 1020.3
20260508032538 55 255 0.0 1.0 0.00 0.00 0.00 18 1020.4
20260508032036 55 257 3.0 6.0 0.00 0.00 0.00 18 1020.3
20260508031533 55 231 1.0 2.0 0.00 0.00 0.00 17 1020.0
20260508031028 56 211 2.0 2.0 0.00 0.00 0.00 17 1020.2
20260508030525 56 255 1.0 3.0 0.00 0.00 0.00 17 1019.9
20260508030024 57 242 2.0 5.0 0.00 0.00 0.00 16 1019.7
20260508025519 57 260 2.0 5.0 0.00 0.00 0.00 16 1019.8
20260508025016 57 240 3.0 6.0 0.00 0.00 0.00 16 1019.8
20260508024512 58 260 2.0 3.0 0.00 0.00 0.00 15 1019.7
20260508024009 58 208 1.0 3.0 0.00 0.00 0.00 15 1019.4
20260508023506 59 275 3.0 7.0 0.00 0.00 0.00 15 1019.5
20260508023003 59 217 3.0 8.0 0.00 0.00 0.00 14 1019.4
20260508022459 59 220 5.0 6.0 0.00 0.00 0.00 14 1019.3
20260508021955 60 198 2.0 6.0 0.00 0.00 0.00 14 1019.3
20260508021452 60 233 2.0 6.0 0.00 0.00 0.00 14 1019.2
20260508020948 61 201 3.0 6.0 0.00 0.00 0.00 14 1019.2
20260508020446 61 230 4.0 7.0 0.00 0.00 0.00 14 1018.9
20260508015942 62 208 3.0 7.0 0.00 0.00 0.00 14 1019.2
20260508015440 62 195 5.0 7.0 0.00 0.00 0.00 13 1019.2
20260508014937 63 221 2.0 8.0 0.00 0.00 0.00 13 1019.2
20260508014434 63 187 4.0 6.0 0.00 0.00 0.00 13 1019.2
20260508013929 64 218 7.0 8.0 0.00 0.00 0.00 13 1018.9
20260508013426 64 192 5.0 7.0 0.00 0.00 0.00 13 1019.2
20260508012923 65 229 3.0 6.0 0.00 0.00 0.00 13 1019.3
20260508012420 65 210 4.0 8.0 0.00 0.00 0.00 13 1019.1
20260508011918 65 228 5.0 9.0 0.00 0.00 0.00 13 1018.9
20260508011415 66 192 3.0 8.0 0.00 0.00 0.00 13 1019.2
20260508010912 66 203 5.0 14.0 0.00 0.00 0.00 13 1019.1
20260508010410 66 203 8.0 11.0 0.00 0.00 0.00 13 1019.1
20260508005907 66 249 2.0 3.0 0.00 0.00 0.00 13 1019.2
20260508005403 67 237 7.0 9.0 0.00 0.00 0.00 13 1019.2
20260508004900 68 219 6.0 9.0 0.00 0.00 0.00 13 1019.1
20260508004356 68 241 4.0 9.0 0.00 0.00 0.00 13 1019.1
20260508003853 68 282 1.0 5.0 0.00 0.00 0.00 13 1019.3
20260508003349 69 280 6.0 8.0 0.00 0.00 0.00 12 1019.1
20260508002847 68 229 2.0 6.0 0.00 0.00 0.00 12 1019.4
20260508002343 68 208 5.0 6.0 0.00 0.00 0.00 13 1019.2
20260508001840 68 268 0.0 2.0 0.00 0.00 0.00 13 1019.2
20260508001336 68 242 2.0 5.0 0.00 0.00 0.00 13 1019.5
20260508000832 68 269 1.0 6.0 0.00 0.00 0.00 13 1019.4
20260508000328 68 258 3.0 6.0 0.00 0.00 0.00 13 1019.3
20260507235825 68 249 3.0 6.0 0.00 0.00 0.00 13 1019.4
20260507235323 68 213 7.0 9.0 0.00 0.00 0.00 14 1019.4
20260507234820 68 227 3.0 6.0 0.00 0.00 0.00 14 1019.5
20260507234316 68 307 4.0 7.0 0.00 0.00 0.00 15 1019.5
20260507233812 69 259 5.0 11.0 0.00 0.00 0.00 15 1019.4
20260507233310 68 270 2.0 6.0 0.00 0.00 0.00 16 1019.3
20260507232808 68 232 4.0 6.0 0.00 0.00 0.00 16 1019.3
20260507232306 68 249 4.0 8.0 0.00 0.00 0.00 16 1019.4
20260507231801 68 233 3.0 7.0 0.00 0.00 0.00 17 1019.5
20260507231258 67 210 7.0 7.0 0.00 0.00 0.00 16 1019.4
20260507230754 68 260 6.0 9.0 0.00 0.00 0.00 17 1019.5
20260507230252 68 253 5.0 6.0 0.00 0.00 0.00 17 1019.8
20260507225752 69 222 5.0 13.0 0.00 0.00 0.00 18 1019.7
20260507225248 69 270 4.0 6.0 0.00 0.00 0.00 19 1019.5
20260507224744 69 297 5.0 7.0 0.00 0.00 0.00 20 1019.7
20260507224241 68 304 3.0 5.0 0.00 0.00 0.00 19 1019.7
20260507223737 67 290 5.0 7.0 0.00 0.00 0.00 20 1019.7
20260507223234 67 222 4.0 8.0 0.00 0.00 0.00 20 1019.7
20260507222731 67 271 3.0 9.0 0.00 0.00 0.00 21 1019.7
20260507222227 67 261 3.0 5.0 0.00 0.00 0.00 21 1019.7
20260507221724 68 300 4.0 8.0 0.00 0.00 0.00 21 1019.9
20260507221220 68 335 3.0 5.0 0.00 0.00 0.00 19 1020.0
20260507220717 67 271 6.0 7.0 0.00 0.00 0.00 19 1020.2
20260507220215 68 248 3.0 6.0 0.00 0.00 0.00 19 1019.9
20260507215711 68 244 4.0 8.0 0.00 0.00 0.00 19 1020.3
20260507215209 66 239 4.0 5.0 0.00 0.00 0.00 19 1020.3
20260507214706 66 305 4.0 6.0 0.00 0.00 0.00 19 1020.4
20260507214203 67 250 6.0 8.0 0.00 0.00 0.00 18 1020.4
20260507213658 67 280 5.0 9.0 0.00 0.00 0.00 18 1020.7
20260507213155 67 330 3.0 5.0 0.00 0.00 0.00 18 1020.4
20260507212651 66 331 3.0 5.0 0.00 0.00 0.00 17 1020.7
20260507212148 67 309 6.0 8.0 0.00 0.00 0.00 17 1020.8
20260507211645 66 312 2.0 6.0 0.00 0.00 0.00 16 1020.8
20260507211140 66 224 5.0 8.0 0.00 0.00 0.00 15 1020.9
20260507210639 66 3 4.0 11.0 0.00 0.00 0.00 15 1021.0
20260507210135 66 4 8.0 10.0 0.00 0.00 0.00 14 1021.0
20260507205632 66 13 3.0 6.0 0.00 0.00 0.00 15 1021.1
20260507205128 64 30 5.0 9.0 0.00 0.00 0.00 14 1021.3
20260507204624 66 351 4.0 9.0 0.00 0.00 0.00 13 1021.5
20260507204122 67 335 3.0 6.0 0.00 0.00 0.00 12 1021.1
20260507203620 63 272 2.0 2.0 0.00 0.00 0.00 12 1021.5
20260507203117 64 55 3.0 6.0 0.00 0.00 0.00 12 1021.6
20260507202613 65 359 5.0 13.0 0.00 0.00 0.00 10 1021.8
20260507202109 65 282 8.0 13.0 0.00 0.00 0.00 11 1021.8
20260507201604 66 15 7.0 8.0 0.00 0.00 0.00 10 1021.8
20260507201102 63 263 2.0 5.0 0.00 0.00 0.00 12 1021.8
20260507200557 66 264 2.0 11.0 0.00 0.00 0.00 13 1021.9
20260507200053 65 305 6.0 9.0 0.00 0.00 0.00 11 1021.6
20260507195550 64 308 3.0 8.0 0.00 0.00 0.00 12 1021.8
20260507195048 64 319 6.0 9.0 0.00 0.00 0.00 13 1021.9
20260507194544 62 353 2.0 6.0 0.00 0.00 0.00 13 1021.9
20260507194040 65 287 3.0 10.0 0.00 0.00 0.00 14 1021.9
20260507193537 64 271 2.0 6.0 0.00 0.00 0.00 13 1022.1
20260507193034 62 11 6.0 8.0 0.00 0.00 0.00 14 1022.3
20260507192530 63 338 6.0 9.0 0.00 0.00 0.00 12 1022.1
20260507192027 63 257 7.0 10.0 0.00 0.00 0.00 13 1022.1
20260507191523 63 331 4.0 9.0 0.00 0.00 0.00 16 1022.3
20260507191020 62 351 4.0 9.0 0.00 0.00 0.00 16 1022.4
20260507190517 62 11 5.0 7.0 0.00 0.00 0.00 13 1022.8
20260507190016 61 352 5.0 10.0 0.00 0.00 0.00 17 1022.3
20260507185514 62 6 7.0 13.0 0.00 0.00 0.00 18 1022.4
20260507185010 61 10 7.0 10.0 0.00 0.00 0.00 20 1022.4
20260507184508 62 347 7.0 13.0 0.00 0.00 0.00 19 1022.5
20260507184006 61 84 6.0 15.0 0.00 0.00 0.00 16 1022.6
20260507183502 60 337 4.0 13.0 0.00 0.00 0.00 22 1022.8
20260507182959 60 280 8.0 11.0 0.00 0.00 0.00 18 1022.9
20260507182455 60 38 6.0 9.0 0.00 0.00 0.00 21 1022.9
20260507181951 60 359 5.0 9.0 0.00 0.00 0.00 22 1022.9
20260507181448 60 283 3.0 13.0 0.00 0.00 0.00 23 1022.9
20260507180944 59 344 4.0 13.0 0.00 0.00 0.00 24 1023.0
20260507180441 59 14 9.0 13.0 0.00 0.00 0.00 21 1023.2
20260507175937 57 345 5.0 14.0 0.00 0.00 0.00 26 1023.2
20260507175434 59 357 10.0 14.0 0.00 0.00 0.00 25 1023.2
20260507174932 58 79 7.0 14.0 0.00 0.00 0.00 27 1023.2
20260507174429 57 357 6.0 15.0 0.00 0.00 0.00 26 1023.5
20260507173926 56 12 8.0 13.0 0.00 0.00 0.00 29 1023.5
20260507173423 55 276 6.0 9.0 0.00 0.00 0.00 30 1023.4
20260507172920 56 339 8.0 13.0 0.00 0.00 0.00 29 1023.7
20260507172416 55 335 9.0 13.0 0.00 0.00 0.00 30 1023.6
20260507171912 55 346 3.0 14.0 0.00 0.00 0.00 33 1023.7
20260507171409 54 22 9.0 14.0 0.00 0.00 0.00 33 1023.9
20260507170906 54 48 9.0 15.0 0.00 0.00 0.00 33 1023.6
20260507170402 53 351 13.0 18.0 0.00 0.00 0.00 34 1023.7
20260507165859 53 337 9.0 17.0 0.00 0.00 0.00 35 1023.9
20260507165355 53 6 12.0 18.0 0.00 0.00 0.00 37 1024.1
20260507164851 52 3 9.0 15.0 0.00 0.00 0.00 39 1024.2
20260507164348 51 0 10.0 17.0 0.00 0.00 0.00 40 1023.9
20260507163845 51 28 7.0 14.0 0.00 0.00 0.00 42 1024.0
20260507163343 50 8 9.0 14.0 0.00 0.00 0.00 47 1024.0
20260507162839 49 21 7.0 10.0 0.00 0.00 0.00 48 1024.1
20260507162334 48 354 11.0 16.0 0.00 0.00 0.00 49 1024.1
20260507161832 47 302 9.0 16.0 0.00 0.00 0.00 51 1024.2
20260507161328 47 334 12.0 16.0 0.00 0.00 0.00 48 1024.0
20260507160825 47 323 5.0 15.0 0.00 0.00 0.00 50 1024.2
20260507160321 47 30 9.0 17.0 0.00 0.00 0.00 51 1024.5
20260507155817 45 33 10.0 14.0 0.00 0.00 0.00 54 1024.5
20260507155313 45 45 9.0 15.0 0.00 0.00 0.00 54 1024.4
20260507154810 44 283 8.0 13.0 0.00 0.00 0.00 53 1024.4
20260507154307 44 311 7.0 15.0 0.00 0.00 0.00 55 1024.5
20260507153804 44 343 9.0 13.0 0.00 0.00 0.00 54 1024.5
20260507153300 43 9 8.0 13.0 0.00 0.00 0.00 56 1024.7
20260507152757 44 35 6.0 10.0 0.00 0.00 0.00 57 1024.6
20260507152253 43 340 5.0 10.0 0.00 0.00 0.00 59 1024.6
20260507151749 43 342 10.0 14.0 0.00 0.00 0.00 58 1024.7
20260507151245 43 329 8.0 14.0 0.00 0.00 0.00 59 1024.8
20260507150743 43 2 7.0 9.0 0.00 0.00 0.00 58 1025.0
20260507150240 43 68 5.0 10.0 0.00 0.00 0.00 59 1024.7
20260507145736 42 58 5.0 10.0 0.00 0.00 0.00 61 1024.6
20260507145232 43 50 4.0 8.0 0.00 0.00 0.00 62 1024.8
20260507144729 42 300 4.0 8.0 0.00 0.00 0.00 64 1024.7
20260507144227 42 299 2.0 5.0 0.00 0.00 0.00 65 1024.8
20260507143723 42 315 4.0 9.0 0.00 0.00 0.00 65 1025.0
20260507143220 41 344 4.0 7.0 0.00 0.00 0.00 68 1025.1
20260507142716 41 357 5.0 8.0 0.00 0.00 0.00 68 1025.0
20260507142213 40 26 6.0 9.0 0.00 0.00 0.00 70 1025.0
20260507141709 41 351 4.0 7.0 0.00 0.00 0.00 71 1025.1
20260507141206 40 301 5.0 8.0 0.00 0.00 0.00 72 1025.2
20260507140702 40 338 3.0 8.0 0.00 0.00 0.00 74 1025.1
20260507140200 40 67 4.0 8.0 0.00 0.00 0.00 74 1025.1
20260507135657 39 11 3.0 5.0 0.00 0.00 0.00 77 1025.2
20260507135154 39 328 1.0 2.0 0.00 0.00 0.00 78 1025.5
20260507134650 39 7 3.0 5.0 0.00 0.00 0.00 79 1025.1
20260507134147 38 266 2.0 3.0 0.00 0.00 0.00 81 1025.1
20260507133643 37 20 3.0 5.0 0.00 0.00 0.00 81 1025.3
20260507133140 37 0 2.0 3.0 0.00 0.00 0.00 82 1025.0
20260507132638 37 335 2.0 3.0 0.00 0.00 0.00 82 1025.2
20260507132133 37 299 1.0 3.0 0.00 0.00 0.00 83 1025.0
20260507131630 36 297 1.0 2.0 0.00 0.00 0.00 83 1025.1
20260507131128 36 277 1.0 2.0 0.00 0.00 0.00 84 1025.1
20260507130624 35 322 1.0 2.0 0.00 0.00 0.00 85 1025.1
20260507130122 35 351 1.0 2.0 0.00 0.00 0.00 86 1025.2
20260507125621 34 55 1.0 1.0 0.00 0.00 0.00 88 1025.2
20260507125118 33 316 1.0 1.0 0.00 0.00 0.00 89 1025.2
20260507124614 33 279 1.0 2.0 0.00 0.00 0.00 91 1025.1
20260507124112 32 268 1.0 1.0 0.00 0.00 0.00 92 1025.2
20260507123610 32 336 1.0 2.0 0.00 0.00 0.00 92 1025.1
20260507123107 31 318 1.0 2.0 0.00 0.00 0.00 92 1025.1
20260507122602 31 330 1.0 2.0 0.00 0.00 0.00 92 1025.2
20260507122058 31 345 1.0 2.0 0.00 0.00 0.00 92 1025.1
20260507121554 31 11 1.0 2.0 0.00 0.00 0.00 92 1025.2
20260507121050 31 44 1.0 2.0 0.00 0.00 0.00 92 1025.2
20260507120546 31 26 1.0 2.0 0.00 0.00 0.00 92 1025.2
20260507120043 31 335 1.0 2.0 0.00 0.00 0.00 92 1025.2
20260507115539 31 313 0.0 1.0 0.00 0.00 0.00 92 1025.2
20260507115035 30 321 0.0 2.0 0.00 0.00 0.00 92 1025.0
20260507114531 30 282 0.0 1.0 0.00 0.00 0.00 92 1025.1
20260507114029 30 284 1.0 2.0 0.00 0.00 0.00 91 1025.1
20260507113526 30 334 1.0 1.0 0.00 0.00 0.00 91 1025.2
20260507113023 30 309 0.0 1.0 0.00 0.00 0.00 91 1025.1
20260507112521 30 345 0.0 1.0 0.00 0.00 0.00 91 1025.2
20260507112017 30 42 1.0 1.0 0.00 0.00 0.00 90 1025.1
20260507111515 30 232 0.0 0.0 0.00 0.00 0.00 90 1025.1
20260507111011 30 258 0.0 0.0 0.00 0.00 0.00 90 1024.8
20260507110508 30 277 0.0 1.0 0.00 0.00 0.00 89 1024.8
20260507110004 31 240 0.0 0.0 0.00 0.00 0.00 89 1024.8
20260507105501 31 13 1.0 1.0 0.00 0.00 0.00 88 1025.0
20260507104957 32 234 0.0 0.0 0.00 0.00 0.00 88 1024.8
20260507104454 31 229 0.0 0.0 0.00 0.00 0.00 88 1025.1
20260507103950 31 231 0.0 0.0 0.00 0.00 0.00 87 1024.8
20260507103447 31 315 0.0 1.0 0.00 0.00 0.00 87 1025.1
20260507102943 31 295 0.0 0.0 0.00 0.00 0.00 87 1025.1
20260507102440 32 250 0.0 0.0 0.00 0.00 0.00 86 1025.0
20260507101937 32 317 0.0 1.0 0.00 0.00 0.00 85 1025.0
20260507101432 32 224 1.0 1.0 0.00 0.00 0.00 86 1025.1
20260507100928 32 288 0.0 1.0 0.00 0.00 0.00 86 1025.0
20260507100426 31 171 1.0 1.0 0.00 0.00 0.00 86 1025.0
20260507095924 31 238 0.0 1.0 0.00 0.00 0.00 86 1025.0
20260507095421 31 224 1.0 1.0 0.00 0.00 0.00 86 1025.0
20260507094918 31 254 0.0 0.0 0.00 0.00 0.00 85 1025.2
20260507094414 31 213 1.0 1.0 0.00 0.00 0.00 84 1024.8
20260507093911 32 236 0.0 0.0 0.00 0.00 0.00 84 1025.0
20260507093409 32 206 1.0 1.0 0.00 0.00 0.00 83 1025.2
20260507092907 32 206 0.0 0.0 0.00 0.00 0.00 83 1025.1
20260507092403 32 234 0.0 1.0 0.00 0.00 0.00 82 1025.1
20260507091900 32 178 1.0 1.0 0.00 0.00 0.00 82 1025.0
20260507091356 32 191 1.0 1.0 0.00 0.00 0.00 82 1025.2
20260507090852 32 125 1.0 2.0 0.00 0.00 0.00 83 1024.8
20260507090348 32 257 0.0 0.0 0.00 0.00 0.00 82 1025.1
20260507085845 32 200 0.0 2.0 0.00 0.00 0.00 82 1025.0
20260507085342 33 185 1.0 1.0 0.00 0.00 0.00 82 1025.1
20260507084840 32 224 0.0 2.0 0.00 0.00 0.00 86 1025.0
20260507084336 32 257 0.0 0.0 0.00 0.00 0.00 86 1024.7
20260507083834 32 211 1.0 1.0 0.00 0.00 0.00 87 1024.7
20260507083330 32 234 0.0 0.0 0.00 0.00 0.00 87 1024.8
20260507082826 33 248 0.0 0.0 0.00 0.00 0.00 86 1024.8
20260507082321 33 285 0.0 1.0 0.00 0.00 0.00 85 1024.8
20260507081819 34 310 0.0 1.0 0.00 0.00 0.00 84 1024.7
20260507081315 34 263 0.0 0.0 0.00 0.00 0.00 83 1024.8
20260507080812 35 141 1.0 2.0 0.00 0.00 0.00 83 1024.6
20260507080308 35 93 1.0 2.0 0.00 0.00 0.00 84 1024.6
20260507075803 35 111 1.0 2.0 0.00 0.00 0.00 84 1024.6
20260507075259 35 94 1.0 2.0 0.00 0.00 0.00 84 1024.7
20260507074756 34 358 1.0 2.0 0.00 0.00 0.00 85 1024.8
20260507074255 34 129 2.0 5.0 0.00 0.00 0.00 86 1024.7
20260507073751 34 155 2.0 2.0 0.00 0.00 0.00 84 1024.8
20260507073247 35 80 1.0 2.0 0.00 0.00 0.00 83 1024.5
20260507072745 35 53 2.0 3.0 0.00 0.00 0.00 83 1024.5
20260507072242 36 38 1.0 3.0 0.00 0.00 0.00 82 1024.6
20260507071740 36 346 1.0 2.0 0.00 0.00 0.00 82 1024.4
20260507071236 36 28 2.0 3.0 0.00 0.00 0.00 82 1024.2
20260507070733 36 58 2.0 3.0 0.00 0.00 0.00 82 1024.4
20260507070230 36 35 2.0 3.0 0.00 0.00 0.00 82 1024.4
20260507065726 36 307 2.0 5.0 0.00 0.00 0.00 83 1024.4
20260507065223 36 293 2.0 5.0 0.00 0.00 0.00 83 1024.2
20260507064721 36 12 2.0 3.0 0.00 0.00 0.00 82 1024.4
20260507064220 36 314 2.0 5.0 0.00 0.00 0.00 82 1024.4
20260507063716 36 353 3.0 3.0 0.00 0.00 0.00 81 1024.1
20260507063213 36 47 3.0 3.0 0.00 0.00 0.00 81 1024.1
20260507062710 36 21 3.0 5.0 0.00 0.00 0.00 81 1024.2
20260507062208 36 34 1.0 3.0 0.00 0.00 0.00 80 1023.9
20260507061706 37 358 3.0 5.0 0.00 0.00 0.00 80 1024.0
20260507061203 37 359 1.0 2.0 0.00 0.00 0.00 80 1024.0
20260507060701 37 14 2.0 5.0 0.00 0.00 0.00 80 1024.1
20260507060157 36 14 3.0 3.0 0.00 0.00 0.00 80 1024.0
20260507055653 37 7 3.0 3.0 0.00 0.01 0.01 80 1023.7
20260507055149 37 0 1.0 2.0 0.00 0.01 0.01 79 1023.9
20260507054645 37 30 1.0 3.0 0.00 0.01 0.01 79 1023.6
20260507054142 36 338 2.0 5.0 0.00 0.01 0.01 79 1023.6
20260507053640 37 23 2.0 3.0 0.00 0.01 0.01 79 1023.6
20260507053138 37 358 2.0 2.0 0.00 0.01 0.01 78 1023.6
20260507052636 37 46 2.0 5.0 0.00 0.01 0.01 78 1023.6
20260507052132 37 59 3.0 6.0 0.00 0.01 0.01 77 1023.4
20260507051630 37 5 2.0 2.0 0.00 0.01 0.01 76 1023.7
20260507051126 38 54 2.0 3.0 0.00 0.01 0.01 74 1023.6
20260507050623 38 52 3.0 8.0 0.00 0.01 0.01 71 1023.6
20260507050120 38 39 1.0 5.0 0.00 0.01 0.01 70 1023.5
20260507045617 39 336 2.0 3.0 0.00 0.01 0.01 68 1023.4
20260507045114 40 28 3.0 3.0 0.00 0.01 0.01 67 1023.4
20260507044610 40 353 1.0 3.0 0.00 0.01 0.01 66 1023.2
20260507044108 40 71 2.0 3.0 0.00 0.01 0.01 66 1023.2
20260507043603 39 41 2.0 3.0 0.00 0.01 0.01 66 1023.1
20260507043101 39 308 0.0 1.0 0.00 0.01 0.01 67 1022.9
20260507042556 39 35 1.0 2.0 0.00 0.01 0.01 66 1023.1
20260507042052 40 32 1.0 1.0 0.00 0.01 0.01 66 1023.0
20260507041549 40 320 1.0 2.0 0.00 0.01 0.01 64 1022.9
20260507041046 40 332 1.0 1.0 0.00 0.01 0.01 63 1022.8
20260507040543 41 352 1.0 2.0 0.00 0.01 0.01 62 1022.6
20260507040039 41 355 1.0 2.0 0.00 0.01 0.01 60 1022.6
20260507035535 41 317 1.0 2.0 0.00 0.01 0.01 60 1022.8
20260507035031 42 308 0.0 1.0 0.00 0.01 0.01 59 1022.6
20260507034528 41 320 1.0 1.0 0.00 0.01 0.01 58 1022.5
20260507034026 42 292 0.0 0.0 0.00 0.01 0.01 58 1022.6
20260507033524 42 308 1.0 1.0 0.00 0.01 0.01 57 1022.4